Hourly Data Report for February 17, 2006

TORONTO CITY
ONTARIO

43°40'00.000" N
79°24'00.000" W
112.50 m
6158355
71508
XTO

Download Data

Hourly Data (February 2006)
Hourly Data Report for February 17, 2006
TIME
LST
Temp Definition
°C
Dew Point Definition
°C
Rel Hum Definition
%
Precip. Amount Definition
mm

Wind Dir Definition
10's deg

Wind Spd Definition
km/h
Visibility Definition
km
Stn Press Definition
kPa
Hmdx Definition


Wind Chill Definition


Weather Definition


00:00 3.6 3.5 99   LegendMM LegendMM   98.78     LegendNANA
01:00 3.0 2.9 99   LegendMM LegendMM   98.69     LegendNANA
02:00 3.2 3.1 99   LegendMM LegendMM   98.53     LegendNANA
03:00 4.4 4.3 99   LegendMM LegendMM   98.36     LegendNANA
04:00 7.5 7.3 99   LegendMM LegendMM   98.21     LegendNANA
05:00 6.9 4.9 87   LegendMM LegendMM   98.37     LegendNANA
06:00 3.8 1.4 84   LegendMM LegendMM   98.65     LegendNANA
07:00 -1.9 -8.0 63   LegendMM LegendMM   99.21     LegendNANA
08:00 -3.7 -8.7 68   LegendMM LegendMM   99.67     LegendNANA
09:00 -4.1 -9.5 66   LegendMM LegendMM   99.95     LegendNANA
10:00 -5.0 -12.2 57   LegendMM LegendMM   100.23     LegendNANA
11:00 -3.9 -11.0 58   LegendMM LegendMM   100.46     LegendNANA
12:00 -4.3 -11.7 56   LegendMM LegendMM   100.63     LegendNANA
13:00 -3.9 -11.0 58   LegendMM LegendMM   100.72     LegendNANA
14:00 -3.2 -10.9 55   LegendMM LegendMM   100.83     LegendNANA
15:00 -3.8 -11.8 54   LegendMM LegendMM   100.90     LegendNANA
16:00 -3.7 -12.3 51   LegendMM LegendMM   100.98     LegendNANA
17:00 -4.0 -11.4 56   LegendMM LegendMM   101.07     LegendNANA
18:00 -4.3 -11.0 60   LegendMM LegendMM   101.10     LegendNANA
19:00 -4.9 -11.3 61   LegendMM LegendMM   101.13     LegendNANA
20:00 -4.8 -10.0 67   LegendMM LegendMM   101.05     LegendNANA
21:00 -4.6 -9.1 71   LegendMM LegendMM   100.95     LegendNANA
22:00 -4.2 -9.6 66   LegendMM LegendMM   100.88     LegendNANA
23:00 -4.2 -11.2 58   LegendMM LegendMM   100.81     LegendNANA

Notes on Data Quality.

Legend

  • E = Estimated
  • M = Missing
  • NA = Not Available*
  • [empty] = Indicates an unobserved value
Date modified: